FW7122 Weather Reports


time (UTC)temp
F
wind
direction
speed
knots
gust
knots
rain 1hr
in
rain 24hr
in
rain mn
in
humidity
%
barometer
mb
20260503224544 60 208 8.7 21.7 0.00 0.00 0.00 45 1011.6
20260503224036 60 180 7.8 21.7 0.00 0.00 0.00 43 1011.6
20260503223528 60 215 8.7 16.5 0.00 0.00 0.00 43 1011.7
20260503223040 60 159 7.8 20.0 0.00 0.00 0.00 43 1011.7
20260503222532 60 215 11.3 20.0 0.00 0.00 0.00 43 1011.8
20260503222027 60 204 8.7 16.5 0.00 0.00 0.00 43 1011.9
20260503221540 60 223 7.8 14.8 0.00 0.00 0.00 43 1011.9
20260503221032 60 208 6.1 14.8 0.00 0.00 0.00 44 1011.9
20260503220545 61 271 4.3 14.8 0.00 0.00 0.00 44 1011.9
20260503220037 61 211 4.3 14.8 0.00 0.00 0.00 44 1011.9
20260503215529 61 222 7.8 13.0 0.00 0.00 0.00 43 1011.9
20260503215040 61 237 7.8 15.6 0.00 0.00 0.00 42 1011.9
20260503214532 61 270 8.7 15.6 0.00 0.00 0.00 44 1011.9
20260503214028 61 261 8.7 16.5 0.00 0.00 0.00 44 1012.0
20260503213541 61 242 5.2 16.5 0.00 0.00 0.00 44 1011.8
20260503213033 61 261 7.8 19.1 0.00 0.00 0.00 42 1011.9
20260503212526 61 227 6.1 19.1 0.00 0.00 0.00 42 1012.0
20260503212038 60 200 6.1 20.0 0.00 0.00 0.00 43 1012.1
20260503211530 60 230 7.0 20.0 0.00 0.00 0.00 43 1012.1
20260503211043 60 223 9.6 17.4 0.00 0.00 0.00 43 1012.1
20260503210535 61 200 9.6 17.4 0.00 0.00 0.00 43 1012.1
20260503210031 61 213 3.5 16.5 0.00 0.00 0.00 44 1012.1
20260503205543 61 236 11.3 23.5 0.00 0.00 0.00 43 1012.1
20260503205035 61 221 9.6 23.5 0.00 0.00 0.00 42 1012.1
20260503204546 61 217 10.4 19.1 0.00 0.00 0.00 43 1012.1
20260503204037 61 240 10.4 19.1 0.00 0.00 0.00 43 1012.1
20260503203530 61 175 10.4 19.1 0.00 0.00 0.00 43 1012.0
20260503203038 61 188 7.0 20.0 0.00 0.00 0.00 43 1012.2
20260503202530 61 203 13.0 20.0 0.00 0.00 0.00 42 1012.2
20260503202102 61 250 6.1 18.2 0.00 0.00 0.00 43 1012.2
20260503201537 61 205 9.6 17.4 0.00 0.00 0.00 42 1012.2
20260503201028 61 284 4.3 20.0 0.00 0.00 0.00 43 1012.3
20260503200542 61 200 10.4 20.9 0.00 0.00 0.00 43 1012.4
20260503200033 61 198 10.4 25.2 0.00 0.00 0.00 41 1012.4
20260503195545 62 277 6.1 25.2 0.00 0.00 0.00 42 1012.5
20260503195037 62 251 6.1 18.2 0.00 0.00 0.00 42 1012.5
20260503194529 61 260 7.8 22.6 0.00 0.00 0.00 41 1012.6
20260503194041 62 216 12.2 22.6 0.00 0.00 0.00 40 1012.7
20260503193537 62 263 7.0 18.2 0.00 0.00 0.00 42 1012.8
20260503193027 62 220 5.2 20.9 0.00 0.00 0.00 41 1012.9
20260503192539 62 218 8.7 20.9 0.00 0.00 0.00 40 1012.9
20260503192031 62 234 5.2 15.6 0.00 0.00 0.00 42 1013.0
20260503191543 62 239 6.1 13.9 0.00 0.00 0.00 41 1013.1
20260503191035 62 294 6.1 16.5 0.00 0.00 0.00 42 1013.1
20260503190527 62 220 7.0 16.5 0.00 0.00 0.00 43 1013.3
20260503190101 62 165 6.1 22.6 0.00 0.00 0.00 43 1013.4
20260503185531 62 220 10.4 22.6 0.00 0.00 0.00 43 1013.4
20260503185027 62 194 4.3 18.2 0.00 0.00 0.00 42 1013.4
20260503184540 62 199 4.3 16.5 0.00 0.00 0.00 44 1013.5
20260503184033 63 209 6.1 20.0 0.00 0.00 0.00 45 1013.6
20260503183605 62 225 6.1 20.0 0.00 0.00 0.00 45 1013.6
20260503183036 62 197 7.0 19.1 0.00 0.00 0.00 44 1013.8
20260503182548 62 234 5.2 19.1 0.00 0.00 0.00 44 1013.8
20260503182038 62 202 8.7 15.6 0.00 0.00 0.00 42 1013.9
20260503181529 62 252 7.0 15.6 0.00 0.00 0.00 45 1013.8
20260503181040 62 182 5.2 17.4 0.00 0.00 0.00 47 1013.9
20260503180536 62 311 5.2 17.4 0.00 0.00 0.00 47 1014.1
20260503180027 61 234 5.2 15.6 0.00 0.00 0.00 44 1014.0
20260503175539 61 230 7.0 20.9 0.00 0.00 0.00 46 1014.1
20260503175031 62 152 12.2 20.9 0.00 0.00 0.00 43 1014.2
20260503174543 62 243 7.8 14.8 0.00 0.00 0.00 47 1014.2
20260503174035 61 257 7.8 15.6 0.00 0.00 0.00 45 1014.2
20260503173527 62 194 10.4 15.6 0.00 0.00 0.00 45 1014.3
20260503173038 62 247 7.0 13.0 0.00 0.00 0.00 50 1014.4
20260503172530 61 246 8.7 13.0 0.00 0.00 0.00 47 1014.4
20260503172045 60 164 1.7 15.6 0.00 0.00 0.00 49 1014.4
20260503171556 60 213 7.8 14.8 0.00 0.00 0.00 48 1014.7
20260503171027 60 239 7.8 16.5 0.00 0.00 0.00 48 1014.7
20260503170540 59 240 6.1 17.4 0.00 0.00 0.00 49 1014.7
20260503150601 55 246 7.8 13.9 0.00 0.00 0.00 53 1015.9
20260503131042 47 219 5.2 10.4 0.00 0.00 0.00 62 1016.5
20260503130534 46 229 2.6 11.3 0.00 0.00 0.00 63 1016.4
20260503110526 37 222 0.9 3.5 0.00 0.00 0.00 83 1016.3
20260503081549 37 223 0.0 6.1 0.00 0.00 0.00 86 1016.0
20260503081101 37 223 0.0 4.3 0.00 0.00 0.00 86 1016.0
20260503080531 37 223 1.7 4.3 0.00 0.00 0.00 86 1016.0
20260503072551 38 223 0.0 0.0 0.00 0.00 0.00 84 1016.0
20260503072043 38 223 0.0 0.0 0.00 0.00 0.00 84 1016.0
20260503071535 38 223 0.0 0.0 0.00 0.00 0.00 84 1016.0
20260503071028 38 223 0.0 5.2 0.00 0.00 0.00 84 1016.0
20260503070540 38 223 0.9 5.2 0.00 0.00 0.00 84 1016.0
20260503055055 40 223 0.9 4.3 0.00 0.00 0.00 82 1016.3
20260503054527 40 223 0.0 4.3 0.00 0.00 0.00 82 1016.3
20260503054039 40 223 0.0 3.5 0.00 0.00 0.00 81 1016.4
20260503053530 40 223 0.9 3.5 0.00 0.00 0.00 81 1016.4
20260503053026 40 223 0.0 4.3 0.00 0.00 0.00 81 1016.4
20260503052538 40 223 0.0 5.2 0.00 0.00 0.00 81 1016.4
20260503052029 40 223 1.7 3.5 0.00 0.00 0.00 80 1016.4
20260503051542 40 223 0.0 2.6 0.00 0.00 0.00 80 1016.4
20260503051054 41 223 0.9 6.1 0.00 0.00 0.00 79 1016.4
20260503050605 41 223 0.9 6.1 0.00 0.00 0.00 79 1016.4
20260503050057 41 223 0.9 3.5 0.00 0.00 0.00 79 1016.5
20260503045527 41 223 0.0 4.3 0.00 0.00 0.11 79 1016.5
20260503045040 41 223 3.5 4.3 0.00 0.00 0.11 78 1016.5
20260503044533 41 223 0.0 4.3 0.00 0.00 0.11 78 1016.5
20260503044030 41 223 0.9 5.2 0.00 0.00 0.11 78 1016.5
20260503043542 41 223 2.6 5.2 0.00 0.00 0.11 78 1016.5
20260503043055 42 223 1.7 3.5 0.00 0.00 0.11 77 1016.5
20260503042544 42 223 0.0 3.5 0.00 0.00 0.11 77 1016.5
20260503042037 42 223 0.9 5.2 0.00 0.00 0.11 76 1016.5
20260503041529 42 223 0.9 6.1 0.00 0.00 0.11 76 1016.6
20260503041042 42 223 3.5 6.1 0.00 0.00 0.11 76 1016.6
20260503040537 42 223 1.7 5.2 0.00 0.00 0.11 76 1016.6
20260503040032 42 223 0.9 7.0 0.00 0.00 0.11 75 1016.7
20260503035606 42 223 0.0 7.8 0.00 0.00 0.11 75 1016.7
20260503035037 43 223 3.5 7.8 0.00 0.00 0.11 75 1016.6
20260503034529 43 224 4.3 7.8 0.00 0.00 0.11 75 1016.7
20260503034042 43 225 1.7 6.1 0.00 0.00 0.11 75 1016.7
20260503033534 43 225 2.6 7.8 0.00 0.00 0.11 75 1016.8
20260503033027 43 225 4.3 7.8 0.00 0.00 0.11 75 1016.8
20260503032539 43 225 4.3 7.8 0.00 0.00 0.11 74 1016.9
20260503032032 43 227 2.6 7.0 0.00 0.00 0.11 75 1016.9
20260503031528 43 232 2.6 7.0 0.00 0.00 0.11 74 1016.9
20260503031041 43 232 3.5 7.0 0.00 0.00 0.11 74 1016.8
20260503030533 43 232 3.5 7.0 0.00 0.00 0.11 74 1016.9
20260503030026 43 232 2.6 7.0 0.00 0.00 0.11 74 1016.9
20260503025538 43 232 1.7 3.5 0.00 0.00 0.11 74 1016.9
20260503025050 43 232 0.0 3.5 0.00 0.00 0.11 74 1017.0
20260503024542 43 232 0.9 6.1 0.00 0.00 0.11 74 1017.0
20260503024035 43 232 1.7 5.2 0.00 0.00 0.11 74 1017.0
20260503023532 43 232 0.0 6.1 0.00 0.00 0.11 73 1017.1
20260503023045 43 232 1.7 6.1 0.00 0.00 0.11 73 1017.1
20260503022533 43 232 0.9 6.1 0.00 0.00 0.11 73 1017.1
20260503022045 44 232 2.6 6.1 0.00 0.00 0.11 72 1017.1
20260503021538 44 232 0.9 4.3 0.00 0.00 0.11 72 1017.1
20260503021031 44 232 1.7 8.7 0.00 0.00 0.11 71 1017.1
20260503020543 44 232 2.6 8.7 0.00 0.00 0.11 71 1017.1
20260503020036 44 250 3.5 6.1 0.00 0.00 0.11 70 1017.1
20260503015549 44 255 2.6 5.2 0.00 0.00 0.11 70 1017.1
20260503015041 44 255 2.6 5.2 0.00 0.00 0.11 70 1017.1
20260503014537 44 255 1.7 5.2 0.00 0.00 0.11 69 1017.0
20260503014049 44 258 0.9 4.3 0.00 0.00 0.11 70 1017.0
20260503013542 44 259 0.9 5.2 0.00 0.00 0.11 69 1017.0
20260503013035 44 259 0.9 5.2 0.00 0.00 0.11 69 1017.0
20260503012527 44 258 2.6 4.3 0.00 0.00 0.11 69 1016.9
20260503012039 44 258 0.0 3.5 0.00 0.00 0.11 69 1017.0
20260503011532 44 258 0.9 3.5 0.00 0.00 0.11 69 1017.0
20260503011041 44 258 0.0 2.6 0.00 0.00 0.11 69 1017.0
20260503010554 44 258 0.0 1.7 0.00 0.00 0.11 68 1016.9
20260503010030 44 258 0.0 4.3 0.00 0.00 0.11 68 1016.9
20260503005542 44 258 0.0 4.3 0.00 0.00 0.11 67 1016.9
20260503005036 44 259 0.0 0.0 0.00 0.00 0.11 68 1016.9
20260503004546 44 259 0.0 0.0 0.00 0.00 0.11 67 1016.8
20260503004038 44 259 0.0 0.0 0.00 0.00 0.11 67 1016.7
20260503003531 44 259 0.0 0.0 0.00 0.00 0.11 66 1016.7
20260503003104 44 259 0.0 0.0 0.00 0.00 0.11 66 1016.6
20260503002535 44 259 0.0 0.0 0.00 0.00 0.11 65 1016.7
20260503002047 45 259 0.0 0.0 0.00 0.00 0.11 65 1016.7
20260503001538 45 259 0.0 0.0 0.00 0.00 0.11 66 1016.8
20260503001035 45 259 0.0 0.9 0.00 0.00 0.11 65 1016.8
20260503000527 45 259 0.0 1.7 0.00 0.00 0.11 64 1016.8
20260503000041 45 259 0.0 0.9 0.00 0.00 0.11 64 1016.8
20260502235532 45 259 0.0 0.0 0.00 0.00 0.11 65 1016.6
20260502235045 45 259 0.0 4.3 0.00 0.00 0.11 64 1016.7
20260502234557 45 259 0.9 4.3 0.00 0.00 0.11 64 1016.6
20260502234028 45 259 0.0 4.3 0.00 0.00 0.11 64 1016.6
20260502233540 45 259 0.9 4.3 0.00 0.00 0.11 63 1016.6
20260502233032 45 259 0.0 1.7 0.00 0.00 0.11 62 1016.6
20260502232548 45 259 0.0 0.0 0.00 0.00 0.11 62 1016.6
20260502232037 46 259 0.0 0.0 0.00 0.00 0.11 61 1016.7
20260502231530 46 259 0.0 4.3 0.00 0.00 0.11 61 1016.7
20260502231041 46 259 0.0 4.3 0.00 0.00 0.11 60 1016.8
20260502230554 46 259 0.0 5.2 0.00 0.00 0.11 59 1016.8
20260502230045 46 259 0.0 7.8 0.00 0.00 0.11 59 1016.8
20260502225557 47 260 1.7 8.7 0.00 0.00 0.11 59 1016.8
20260502225028 47 277 0.0 9.6 0.00 0.00 0.11 59 1016.7